Regional Weather Roundup
Issued by NWS Cleveland, OH

Home | Current Version | Previous Version | Graphics & Text | Print | Product List | Glossary On
Versions: 1 2 3 4 5 6 7 8 9 10 11 12 13 14 15 16 17 18 19 20 21 22 23 24 25 26 27 28 29 30 31 32 33 34 35 36 37 38 39 40 41 42 43 44 45 46 47 48 49 50
000
ASUS41 KCLE 221910
RWRCLE
OHIO REGIONAL WEATHER ROUNDUP
NATIONAL WEATHER SERVICE CLEVELAND, OH
300 PM EDT SUN APR 22 2018

NOTE: "FAIR" INDICATES FEW OR NO CLOUDS BELOW 12,000 FEET WITH NO
SIGNIFICANT WEATHER AND/OR OBSTRUCTIONS TO VISIBILITY.

OHZ001>008-015>018-024>027-034-035-043-044-222000-
   NORTHWEST OHIO

CITY           SKY/WX    TMP DP  RH WIND       PRES   REMARKS
DEFIANCE       NOT AVBL
FINDLAY        FAIR      62  26  25 E14G23    30.31F
TOLEDO EXPRESS FAIR      59  21  23 E21       30.36F
TOLEDO EXEC    FAIR      56  23  27 E17G26    30.37F
LIMA           FAIR      61  31  32 NE14      30.30F
$$

OHZ009>014-019>023-028>033-038-089-222000-
   NORTHEAST OHIO

CITY           SKY/WX    TMP DP  RH WIND       PRES   REMARKS
CLE-HOPKINS    PTSUNNY   55  27  34 NE20      30.37F
CLE-LAKEFRONT  FAIR      47  37  68 NE18G25   30.34F
CUY CO. ARPT   PTSUNNY   59  27  29 N13G22    30.35F
LORAIN-ELYRIA  FAIR      55  24  30 NE24      30.35S
ASHTABULA      FAIR      58  25  28 N9G20     30.36F
AKRON-CANTON   FAIR      65  24  21 NE9       30.30F
WOOSTER        FAIR      63  23  21 E9        30.31F
MANSFIELD      FAIR      64  26  23 NE16G24   30.30F
YOUNGSTOWN     FAIR      65  23  20 E10G17    30.31F
$$

OHZ042-051>053-060>062-070>072-077>081-222000-
  SOUTHWEST OHIO

CITY           SKY/WX    TMP DP  RH WIND       PRES   REMARKS
CINC-COVINGTON CLOUDY    66  30  26 NE15      30.22F
CINC-LUNKEN    FAIR      65  37  35 NE13      30.24F
HAMILTON       FAIR      63  36  36 E9        30.25F
DAYTON         PTSUNNY   64  25  22 E14       30.26F
WRIGHT-PAT AFB FAIR      65  26  23 E12       30.25F
DAYTON GENERAL FAIR      65  29  25 E8        30.24F
WILMINGTON     FAIR      62  29  28 NE10      30.25F
$$

OHZ036-037-039>041-045>050-054>059-063>069-073>076-082>088-222000-
  CENTRAL AND SOUTHEAST OHIO

CITY           SKY/WX    TMP DP  RH WIND       PRES   REMARKS
COLUMBUS       CLOUDY    66  26  22 NE6       30.27F
OSU AIRPORT    FAIR      64  27  24 NE7       30.27F
BOLTON FIELD   SUNNY     63  30  29 NE10      30.27F
RICKENBACK AFB FAIR      65  29  25 NE10G17   30.26F
NEWARK         FAIR      65  27  23 E6        30.27F
MARION         FAIR      63  23  21 E7        30.30F
LANCASTER      FAIR      65  31  28 E12       30.27F
ZANESVILLE     FAIR      66  25  21 N7        30.27F
NEW PHILLY     FAIR      67  27  22 N8        30.29
$$




USA.gov is the U.S. government's official web portal to all federal, state and local government web resources and services.